Back to catalog

ARIANE 5 R/B

AliveHEO
NORAD 37607·ROCKET BODY·🇫🇷 France

Launched May 20, 2011 from Guiana Space Centre

Loading…

Next Passes (next 24 hours)

TLE

FreshSource: Space-Track

Epoch: Sep 14, 2026, 11:38 UTC

1 37607U 11022C   26257.48520468  .00630258  18992-6  42157-3 0  9999
2 37607   2.4792 352.3348 5183728 215.1599  95.7835  5.52566561180178

Track ARIANE 5 R/B in real time with AllMySat

Download on the App Store